Location: Caucaguita
(10.3578°N, 66.8025°W)
Time: 01:47:52
(UTC+00:00)

Cosmos 2058 - Pass Details

Date: 18 November 2025
Orbit: 529 x 540 km, 82.5° (Epoch: 08 December)

Event Time Altitude Azimuth Distance (km) Brightness Sun altitude
Rises 22:24:13 0° 9° (N) 2,687 6.1 -6.1°
Reaches altitude 10° 22:26:29 10° 18° (NNE) 1,797 5.1 -6.7°
Maximum altitude 22:30:08 35° 85° (E) 881 3.4 -7.5°
Drops below altitude 10° 22:33:46 10° 152° (SSE) 1,800 5.4 -8.4°
Sets 22:36:02 0° 161° (SSE) 2,691 6.3 -8.9°
